Location: Brockett
(40.8000°S, 175.4500°E)
Time: 18:15:56
(UTC+00:00)

Cosmos 921 Rocket - Pass Details

Date: 04 August 2024
Orbit: 566 x 625 km, 75.8° (Epoch: 18 September)

Event Time Altitude Azimuth Distance (km) Brightness Sun altitude
Exits shadow 17:56:03 10° 203° (SSW) 2,004 5.4 -16.2°
Reaches altitude 10° 17:56:06 10° 203° (SSW) 1,985 5.4 -16.2°
Maximum altitude 18:00:28 65° 283° (WNW) 668 2.9 -15.4°
Drops below altitude 10° 18:04:43 10° 5° (N) 1,918 5.8 -14.6°
Sets 18:06:54 0° 8° (N) 2,800 6.7 -14.2°
